Home   Weather   Sivaganga   Past weeks

Flag for India Past Weather in Sivaganga, Tamil Nadu, India — Yesterday and Last 2 Weeks

Now
86 °F

Haze.


Feels Like: 95 °F
Forecast: 78 / 99 °F
Wind: 7 mph from Southeast

Location: Tiruchchirapalli

Current Time: May 1, 2017 at 12:05:11 am

Latest Report: Apr 30, 2017 at 11:30 pm


Visibility: 3 mi

Pressure: 29.80 "Hg

Humidity: 70%

Dew Point: 75 °F

Location of SivagangaLocation

Past Weather in Sivaganga — Graph

°F

Sivaganga Temperature Yesterday

Maximum temperature yesterday: 104 °F (at 2:30 pm)
Minimum temperature yesterday: 82 °F (at 5:30 am)
Average temperature yesterday: 92 °F

High & Low Weather Summary for the Past Weeks

 TemperatureHumidityPressure
High108 °F (Apr 17, 3:00 pm)89% (Apr 27, 6:00 am)29.86 "Hg (Apr 27, 6:00 am)
Low81 °F (Apr 27, 6:00 am)22% (Apr 29, 4:00 pm)29.59 "Hg (Apr 16, 3:30 pm)
Average93 °F52%29.74 "Hg
* Reported Apr 15 10:30 pm — Apr 30 10:30 pm, Sivaganga, Weather by CustomWeather, © 2017

Note: Actual official high and low records may vary slightly from our data, if they occured in-between our weather recording intervals... More about our weather records

Advertising

Sivaganga Weather History for the Previous 24 Hours

Scroll right to see more
 ConditionsComfort  
Time TempWeatherWind HumidityBarometerVisibility
10:30 pm
Sun, Apr 30
86 °FPassing clouds.7 mph66%29.80 "Hg4 mi
10:00 pm88 °FPassing clouds.9 mph62%29.80 "Hg4 mi
9:30 pm88 °FPassing clouds.9 mph62%29.80 "Hg4 mi
9:00 pm90 °FPassing clouds.9 mph59%29.77 "Hg4 mi
8:30 pm90 °FPassing clouds.7 mph59%29.77 "Hg4 mi
8:00 pm91 °FPassing clouds.12 mph56%29.77 "Hg4 mi
7:30 pm91 °FPassing clouds.15 mph56%29.74 "Hg4 mi
7:00 pm93 °FPassing clouds.17 mph49%29.74 "Hg4 mi
6:30 pm97 °FPassing clouds.16 mph42%29.71 "Hg4 mi
5:30 pm100 °FPassing clouds.9 mph33%29.68 "Hg5 mi
5:00 pm100 °FPassing clouds.6 mph33%29.68 "Hg5 mi
4:30 pm102 °FPassing clouds.7 mph31%29.68 "Hg5 mi
4:00 pm104 °FPassing clouds.6 mph31%29.68 "Hg5 mi
3:30 pm104 °FPassing clouds.7 mph29%29.68 "Hg5 mi
3:00 pm104 °FPassing clouds.5 mph31%29.71 "Hg5 mi
2:30 pm104 °FPassing clouds.No wind31%29.71 "Hg5 mi
2:00 pm102 °FPassing clouds.No wind29%29.74 "Hg5 mi
1:30 pm100 °FPassing clouds.No wind33%29.77 "Hg5 mi
1:00 pm100 °FPassing clouds.5 mph33%29.77 "Hg5 mi
12:30 pm100 °FPassing clouds.3 mph33%29.77 "Hg5 mi
12:00 pm99 °FPassing clouds.3 mph37%29.80 "Hg5 mi
11:30 am97 °FPassing clouds.5 mph42%29.83 "Hg5 mi
11:00 am97 °FPassing clouds.No wind42%29.83 "Hg5 mi
10:30 am95 °FPassing clouds.No wind44%29.83 "Hg5 mi
10:00 am93 °FPassing clouds.2 mph47%29.83 "Hg5 mi
9:00 am91 °FPassing clouds.No wind49%29.83 "Hg5 mi
8:30 am90 °FPassing clouds.No wind59%29.83 "Hg4 mi
8:00 am86 °FHaze.No wind59%29.83 "Hg3 mi
7:30 am86 °FHaze.No wind62%29.80 "Hg3 mi
7:00 am84 °FHaze.No wind66%29.80 "Hg2 mi
6:30 am82 °FHaze.No wind74%29.77 "Hg2 mi
6:00 am82 °FHaze.No wind74%29.77 "Hg2 mi
5:30 am82 °FHaze.No wind70%29.77 "Hg3 mi
5:00 am84 °FHaze.No wind62%29.74 "Hg3 mi
4:30 am84 °FHaze.No wind62%29.74 "Hg3 mi
4:00 am84 °FHaze.7 mph62%29.74 "Hg3 mi
3:30 am84 °FHaze.No wind62%29.74 "Hg3 mi
3:00 am84 °FHaze.No wind62%29.74 "Hg3 mi
2:30 am84 °FHaze.No wind62%29.77 "Hg3 mi
2:00 am86 °FHaze.No wind62%29.77 "Hg3 mi
1:00 am88 °FHaze.No wind59%29.77 "Hg3 mi
12:30 am88 °FHaze.No wind59%29.80 "Hg3 mi
12:00 am88 °FHaze.No wind59%29.80 "Hg3 mi
Weather by CustomWeather, © 2017

See weather overviewHow to use our weather pages